| time (UTC) | temp F | wind direction | speed MPH | gust MPH | rain 1hr in | rain 24hr in | rain mn in | humidity % | barometer mb |
| 20260902040015 | 76 | 127 | 0.0 | 2.0 | 0.00 | 0.26 | 0.00 | 95 | 1018.4 |
| 20260902034517 | 76 | 127 | 0.0 | 2.0 | 0.00 | 0.26 | 0.26 | 95 | 1018.5 |
| 20260902031504 | 76 | 127 | 0.0 | 2.0 | 0.00 | 0.26 | 0.26 | 95 | 1018.6 |
| 20260902030007 | 77 | 127 | 0.0 | 0.0 | 0.00 | 0.26 | 0.26 | 94 | 1018.5 |
| 20260902023020 | 77 | 127 | 0.0 | 0.0 | 0.00 | 0.26 | 0.26 | 94 | 1018.8 |
| 20260902020006 | 78 | 127 | 0.0 | 1.0 | 0.00 | 0.26 | 0.26 | 93 | 1018.5 |
| 20260902014516 | 78 | 127 | 0.0 | 0.0 | 0.00 | 0.26 | 0.26 | 93 | 1018.5 |
| 20260902013019 | 79 | 127 | 0.0 | 0.0 | 0.00 | 0.26 | 0.26 | 92 | 1018.4 |
| 20260902011524 | 79 | 127 | 0.0 | 0.0 | 0.00 | 0.26 | 0.26 | 91 | 1018.3 |
| 20260902010038 | 79 | 127 | 0.0 | 1.0 | 0.00 | 0.26 | 0.26 | 91 | 1018.1 |
| 20260902004535 | 79 | 127 | 0.0 | 2.0 | 0.00 | 0.26 | 0.26 | 90 | 1018.1 |
| 20260902003110 | 80 | 127 | 0.0 | 2.0 | 0.00 | 0.26 | 0.26 | 90 | 1018.2 |
| 20260902001522 | 80 | 127 | 0.0 | 2.0 | 0.00 | 0.26 | 0.26 | 89 | 1018.0 |
| 20260902000038 | 81 | 127 | 0.0 | 3.0 | 0.00 | 0.26 | 0.26 | 88 | 1018.1 |
| 20260901234507 | 81 | 111 | 0.0 | 2.0 | 0.00 | 0.26 | 0.26 | 87 | 1018.1 |
| 20260901233003 | 81 | 82 | 1.0 | 5.0 | 0.00 | 0.26 | 0.26 | 87 | 1017.9 |
| 20260901231503 | 82 | 69 | 2.0 | 5.0 | 0.00 | 0.26 | 0.26 | 86 | 1017.8 |
| 20260901230036 | 82 | 97 | 2.0 | 4.0 | 0.00 | 0.26 | 0.26 | 86 | 1017.9 |
| 20260901224508 | 82 | 79 | 3.0 | 6.0 | 0.00 | 0.26 | 0.26 | 86 | 1017.7 |
| 20260901223036 | 83 | 51 | 2.0 | 4.0 | 0.00 | 0.26 | 0.26 | 85 | 1017.8 |
| 20260901221538 | 84 | 65 | 1.0 | 2.0 | 0.00 | 0.26 | 0.26 | 85 | 1017.9 |
| 20260901220008 | 84 | 61 | 1.0 | 2.0 | 0.00 | 0.26 | 0.26 | 84 | 1017.8 |
| 20260901214528 | 84 | 36 | 2.0 | 4.0 | 0.00 | 0.26 | 0.26 | 84 | 1017.7 |
| 20260901213008 | 84 | 69 | 1.0 | 4.0 | 0.00 | 0.26 | 0.26 | 83 | 1017.8 |
| 20260901211533 | 85 | 36 | 2.0 | 4.0 | 0.00 | 0.26 | 0.26 | 80 | 1017.7 |
| 20260901210023 | 85 | 31 | 0.0 | 4.0 | 0.00 | 0.26 | 0.26 | 80 | 1017.8 |
| 20260901204531 | 85 | 264 | 1.0 | 8.0 | 0.00 | 0.26 | 0.26 | 80 | 1017.8 |
| 20260901203037 | 84 | 41 | 3.0 | 5.0 | 0.00 | 0.26 | 0.26 | 85 | 1017.9 |
| 20260901201530 | 84 | 18 | 3.0 | 8.0 | 0.00 | 0.26 | 0.26 | 87 | 1017.8 |
| 20260901200035 | 82 | 359 | 6.0 | 8.0 | 0.04 | 0.26 | 0.26 | 88 | 1017.9 |
| 20260901194532 | 81 | 1 | 2.0 | 6.0 | 0.06 | 0.26 | 0.26 | 90 | 1018.0 |
| 20260901193006 | 80 | 312 | 3.0 | 4.0 | 0.06 | 0.26 | 0.26 | 90 | 1018.1 |
| 20260901191511 | 80 | 349 | 4.0 | 6.0 | 0.06 | 0.26 | 0.26 | 90 | 1018.1 |
| 20260901190018 | 81 | 344 | 3.0 | 6.0 | 0.10 | 0.22 | 0.22 | 90 | 1018.3 |
| 20260901184534 | 82 | 319 | 5.0 | 6.0 | 0.20 | 0.20 | 0.20 | 88 | 1018.4 |
| 20260901183007 | 82 | 341 | 2.0 | 5.0 | 0.20 | 0.20 | 0.20 | 91 | 1018.6 |
| 20260901181510 | 80 | 307 | 2.0 | 5.0 | 0.20 | 0.20 | 0.20 | 91 | 1018.6 |
| 20260901180021 | 81 | 359 | 5.0 | 12.0 | 0.12 | 0.12 | 0.12 | 84 | 1018.8 |
| 20260901174543 | 88 | 105 | 3.0 | 7.0 | 0.00 | 0.00 | 0.00 | 75 | 1018.6 |
| 20260901173005 | 85 | 356 | 2.0 | 5.0 | 0.00 | 0.00 | 0.00 | 76 | 1018.9 |
| 20260901171544 | 85 | 109 | 3.0 | 10.0 | 0.00 | 0.00 | 0.00 | 76 | 1019.0 |
| 20260901170036 | 86 | 42 | 5.0 | 8.0 | 0.00 | 0.00 | 0.00 | 76 | 1019.2 |
| 20260901164535 | 86 | 41 | 3.0 | 6.0 | 0.00 | 0.00 | 0.00 | 78 | 1019.2 |
| 20260901163045 | 85 | 37 | 1.0 | 7.0 | 0.00 | 0.00 | 0.00 | 79 | 1019.3 |
| 20260901161531 | 86 | 28 | 5.0 | 10.0 | 0.00 | 0.00 | 0.00 | 77 | 1019.4 |
| 20260901160033 | 86 | 51 | 3.0 | 10.0 | 0.00 | 0.00 | 0.00 | 76 | 1019.5 |
| 20260901154532 | 86 | 52 | 3.0 | 12.0 | 0.00 | 0.00 | 0.00 | 76 | 1019.5 |
| 20260901153036 | 85 | 74 | 3.0 | 9.0 | 0.00 | 0.00 | 0.00 | 77 | 1019.7 |
| 20260901151533 | 84 | 37 | 3.0 | 8.0 | 0.00 | 0.00 | 0.00 | 80 | 1019.8 |
| 20260901150008 | 84 | 89 | 2.0 | 8.0 | 0.00 | 0.00 | 0.00 | 81 | 1019.8 |
| 20260901144516 | 83 | 345 | 4.0 | 8.0 | 0.00 | 0.00 | 0.00 | 84 | 1019.9 |
| 20260901143004 | 82 | 356 | 3.0 | 5.0 | 0.00 | 0.00 | 0.00 | 88 | 1019.8 |
| 20260901141505 | 81 | 41 | 5.0 | 7.0 | 0.00 | 0.00 | 0.00 | 89 | 1019.8 |
| 20260901140008 | 80 | 359 | 3.0 | 6.0 | 0.00 | 0.00 | 0.00 | 93 | 1019.7 |
| 20260901134509 | 79 | 41 | 5.0 | 7.0 | 0.00 | 0.00 | 0.00 | 96 | 1019.7 |
| 20260901133011 | 78 | 6 | 5.0 | 7.0 | 0.00 | 0.00 | 0.00 | 97 | 1019.7 |
| 20260901131505 | 78 | 351 | 2.0 | 6.0 | 0.00 | 0.00 | 0.00 | 97 | 1019.7 |
| 20260901130007 | 76 | 1 | 3.0 | 5.0 | 0.00 | 0.00 | 0.00 | 97 | 1019.6 |
| 20260901124514 | 76 | 1 | 3.0 | 5.0 | 0.00 | 0.00 | 0.00 | 97 | 1019.5 |
| 20260901123002 | 75 | 335 | 3.0 | 4.0 | 0.00 | 0.00 | 0.00 | 97 | 1019.3 |
| 20260901121523 | 75 | 353 | 2.0 | 4.0 | 0.00 | 0.00 | 0.00 | 97 | 1019.1 |
| 20260901120009 | 75 | 360 | 2.0 | 3.0 | 0.00 | 0.00 | 0.00 | 97 | 1019.1 |
| 20260901114513 | 74 | 359 | 2.0 | 3.0 | 0.00 | 0.00 | 0.00 | 97 | 1018.9 |
| 20260901113004 | 74 | 355 | 2.0 | 3.0 | 0.00 | 0.00 | 0.00 | 97 | 1018.8 |
| 20260901111503 | 74 | 359 | 2.0 | 3.0 | 0.00 | 0.00 | 0.00 | 97 | 1018.6 |
| 20260901110009 | 74 | 359 | 2.0 | 3.0 | 0.00 | 0.00 | 0.00 | 97 | 1018.4 |
| 20260901104515 | 74 | 341 | 2.0 | 3.0 | 0.00 | 0.00 | 0.00 | 97 | 1018.4 |
| 20260901103025 | 74 | 1 | 2.0 | 4.0 | 0.00 | 0.00 | 0.00 | 97 | 1018.4 |
| 20260901101507 | 74 | 350 | 2.0 | 3.0 | 0.00 | 0.00 | 0.00 | 97 | 1018.3 |
| 20260901100004 | 74 | 360 | 2.0 | 2.0 | 0.00 | 0.00 | 0.00 | 96 | 1018.3 |
| 20260901094521 | 74 | 360 | 1.0 | 2.0 | 0.00 | 0.00 | 0.00 | 97 | 1018.2 |
| 20260901093017 | 74 | 360 | 2.0 | 3.0 | 0.00 | 0.00 | 0.00 | 96 | 1018.0 |
| 20260901091523 | 74 | 359 | 2.0 | 3.0 | 0.00 | 0.00 | 0.00 | 96 | 1017.9 |
| 20260901090006 | 74 | 359 | 2.0 | 2.0 | 0.00 | 0.00 | 0.00 | 96 | 1017.7 |
| 20260901084508 | 74 | 359 | 1.0 | 3.0 | 0.00 | 0.00 | 0.00 | 96 | 1017.9 |
| 20260901083014 | 74 | 359 | 1.0 | 2.0 | 0.00 | 0.00 | 0.00 | 96 | 1017.8 |
| 20260901073023 | 74 | 360 | 0.0 | 2.0 | 0.00 | 0.00 | 0.00 | 96 | 1018.1 |
| 20260901071517 | 75 | 360 | 0.0 | 0.0 | 0.00 | 0.00 | 0.00 | 96 | 1018.2 |
| 20260901070038 | 75 | 360 | 0.0 | 2.0 | 0.00 | 0.00 | 0.00 | 96 | 1018.4 |
| 20260901064504 | 75 | 360 | 0.0 | 2.0 | 0.00 | 0.00 | 0.00 | 95 | 1018.6 |
| 20260901063002 | 75 | 63 | 0.0 | 2.0 | 0.00 | 0.00 | 0.00 | 95 | 1018.7 |
| 20260901061503 | 75 | 63 | 0.0 | 0.0 | 0.00 | 0.00 | 0.00 | 95 | 1018.8 |
| 20260901060004 | 75 | 63 | 0.0 | 2.0 | 0.00 | 0.00 | 0.00 | 95 | 1018.7 |
| 20260901054505 | 75 | 63 | 0.0 | 0.0 | 0.00 | 0.00 | 0.00 | 95 | 1018.8 |
| 20260901053009 | 75 | 63 | 0.0 | 2.0 | 0.00 | 0.00 | 0.00 | 95 | 1019.1 |
| 20260901051502 | 75 | 63 | 0.0 | 2.0 | 0.00 | 0.00 | 0.00 | 95 | 1019.2 |
| 20260901050003 | 75 | 63 | 0.0 | 2.0 | 0.00 | 0.00 | 0.00 | 95 | 1019.2 |
| 20260901044506 | 76 | 63 | 0.0 | 0.0 | 0.00 | 0.00 | 0.00 | 94 | 1019.2 |
| 20260901043013 | 76 | 63 | 0.0 | 0.0 | 0.00 | 0.00 | 0.00 | 94 | 1019.2 |
| 20260901041512 | 76 | 63 | 0.0 | 2.0 | 0.00 | 0.00 | 0.00 | 94 | 1019.2 |